Weather History for Blytheville Muni Airport, AR

Change the Weather History Date:

Friday, May 31, 2013

  Actual Average Record
Temperature  
Mean Temperature 75 °F -  
Max Temperature 84 °F 84 °F 98 °F (1977)
Min Temperature 66 °F 64 °F 48 °F (1930)
Cooling Degree Days 10    
Growing Degree Days 25 (Base 50)    
Moisture  
Dew Point 69 °F    
Average Humidity 85    
Maximum Humidity 94    
Minimum Humidity 66    
Precipitation  
Precipitation 1.62 in - - ()
Sea Level Pressure  
Sea Level Pressure 29.92 in    
Wind  
Wind Speed 16 mph (South)    
Max Wind Speed 25 mph    
Max Gust Speed 36 mph    
Visibility 8 miles    
Events Rain , Thunderstorm    
Averages and records for this station are not official NWS values.
T = Trace of Precipitation, MM = Missing Value Source: NWS Daily Summary

Daily Weather History Graph

Daily Weather History Graph

Search for Another Location

Airport:

Trip Planner

Search our weather history database for the weather conditions in past years. The results will help you decide how hot, cold, wet, or windy it might be!

Date:

Astronomy

May. 31, 2013 Rise Set
Actual Time 5:44 AM CDT 8:10 PM CDT
Civil Twilight 5:14 AM CDT 8:39 PM CDT
Nautical Twilight 4:38 AM CDT 9:16 PM CDT
Astronomical Twilight 3:58 AM CDT 9:56 PM CDT
Moon 12:53 AM CDT (5/31) 12:49 PM CDT (5/31)
Length of Visible Light 15h 25m
Length of Day
14h 25m
Waning Gibbous, 51% of the Moon is Illuminated
May 31
Waning Gibbous
May 31
Last Quarter
Jun 8
New
Jun 16
First Quarter
Jun 23
Full

Hourly Weather History & Observations

Time (CDT) Temp. Heat Index Dew Point Humidity Pressure Visibility Wind Dir Wind Speed Gust Speed Precip Events Conditions
12:42 AM 73.4 °F - 69.8 °F 88% 29.94 in 4.0 mi South 25.3 mph 35.7 mph 0.12 in Rain , Thunderstorm Rain
12:53 AM 72.0 °F - 70.0 °F 93% 29.92 in 7.0 mi South 18.4 mph 29.9 mph 0.15 in Rain , Thunderstorm Rain
1:13 AM 73.4 °F - 71.6 °F 94% 29.92 in 10.0 mi South 15.0 mph 24.2 mph 0.01 in Rain Light Rain
1:53 AM 73.9 °F - 71.1 °F 91% 29.92 in 10.0 mi South 17.3 mph 24.2 mph 0.03 in Rain Light Rain
2:53 AM 73.9 °F - 69.1 °F 85% 29.94 in 10.0 mi South 20.7 mph 28.8 mph 0.08 in Rain Light Rain
3:53 AM 73.0 °F - 68.0 °F 84% 29.94 in 10.0 mi South 17.3 mph 24.2 mph 0.03 in Rain Light Rain
4:24 AM 71.6 °F - 68.0 °F 88% 29.96 in 10.0 mi South 16.1 mph 21.9 mph 0.02 in Rain , Thunderstorm Light Thunderstorms and Rain
4:53 AM 70.0 °F - 66.9 °F 90% 29.96 in 10.0 mi South 16.1 mph 26.5 mph 0.08 in Rain Rain
5:16 AM 69.8 °F - 66.2 °F 88% 29.96 in 4.0 mi SSE 10.4 mph 18.4 mph 0.10 in Rain , Thunderstorm Heavy Rain
5:28 AM 69.8 °F - 66.2 °F 88% 29.97 in 6.0 mi South 11.5 mph - 0.15 in Rain Heavy Rain
5:38 AM 69.8 °F - 68.0 °F 94% 29.94 in 2.5 mi SE 12.7 mph - 0.19 in Rain Heavy Rain
5:41 AM 69.8 °F - 68.0 °F 94% 29.94 in 4.0 mi SE 13.8 mph - 0.20 in Rain Rain
5:48 AM 69.8 °F - 68.0 °F 94% 29.94 in 4.0 mi SSE 15.0 mph 21.9 mph 0.22 in Rain , Thunderstorm Heavy Thunderstorms and Rain
5:51 AM 69.8 °F - 68.0 °F 94% 29.91 in 2.5 mi SE 13.8 mph 21.9 mph 0.23 in Rain , Thunderstorm Heavy Thunderstorms and Rain
5:53 AM 70.0 °F - 68.0 °F 93% 29.90 in 2.5 mi SE 16.1 mph 23.0 mph 0.24 in Rain , Thunderstorm Heavy Thunderstorms and Rain
5:57 AM 69.8 °F - 68.0 °F 94% 29.89 in 3.0 mi SE 16.1 mph 27.6 mph 0.02 in Rain Rain
6:06 AM 71.6 °F - 68.0 °F 88% 29.91 in 7.0 mi SSE 15.0 mph 27.6 mph 0.05 in Rain , Thunderstorm Rain
6:11 AM 71.6 °F - 69.8 °F 94% 29.89 in 2.0 mi SSE 18.4 mph 27.6 mph 0.07 in Rain , Thunderstorm Heavy Rain
6:13 AM 71.6 °F - 69.8 °F 94% 29.89 in 1.8 mi South 19.6 mph 24.2 mph 0.08 in Rain , Thunderstorm Heavy Rain
6:20 AM 69.8 °F - 68.0 °F 94% 29.88 in 3.0 mi SSW 12.7 mph 26.5 mph 0.11 in Rain , Thunderstorm Rain
6:24 AM 69.8 °F - 66.2 °F 88% 29.89 in 7.0 mi SSW 19.6 mph 26.5 mph 0.12 in Rain , Thunderstorm Rain
6:33 AM 66.2 °F - 64.4 °F 94% 29.88 in 9.0 mi South 12.7 mph 28.8 mph 0.15 in Rain Rain
6:36 AM 66.2 °F - 64.4 °F 94% 29.87 in 9.0 mi SW 11.5 mph 25.3 mph 0.16 in Rain Rain
6:43 AM 66.2 °F - 64.4 °F 94% 29.88 in 8.0 mi West 15.0 mph 20.7 mph 0.19 in Rain , Thunderstorm Rain
6:53 AM 68.0 °F - 64.9 °F 90% 29.90 in 9.0 mi WNW 21.9 mph 29.9 mph 0.22 in Rain , Thunderstorm Thunderstorms and Rain
7:00 AM 66.2 °F - 64.4 °F 94% 29.92 in 3.0 mi NW 20.7 mph 35.7 mph 0.03 in Rain , Thunderstorm Thunderstorms and Rain
7:21 AM 68.0 °F - 66.2 °F 94% 29.96 in 10.0 mi West 8.1 mph 18.4 mph 0.09 in Rain Light Rain
7:44 AM 68.0 °F - 66.2 °F 94% 29.99 in 1.8 mi SW 5.8 mph - 0.16 in Rain Heavy Rain
7:53 AM 68.0 °F - 66.0 °F 93% 29.97 in 2.0 mi Variable 5.8 mph - 0.18 in Rain Rain
8:00 AM 68.0 °F - 66.2 °F 94% 29.98 in 10.0 mi SW 11.5 mph 16.1 mph 0.02 in Rain Light Rain
8:53 AM 70.0 °F - 66.0 °F 87% 29.97 in 10.0 mi South 5.8 mph - 0.19 in Rain Light Rain
9:49 AM 68.0 °F - 64.4 °F 88% 29.98 in 10.0 mi South 10.4 mph - 0.17 in   Overcast
9:53 AM 68.0 °F - 64.9 °F 90% 29.98 in 10.0 mi South 10.4 mph - 0.18 in Rain Light Rain
10:49 AM 71.6 °F - 66.2 °F 83% 29.96 in 10.0 mi SSE 11.5 mph - 0.13 in   Mostly Cloudy
10:53 AM 72.0 °F - 66.9 °F 84% 29.96 in 10.0 mi SE 9.2 mph - 0.14 in   Mostly Cloudy
11:04 AM 73.4 °F - 66.2 °F 78% 29.96 in 10.0 mi SSE 10.4 mph - 0.02 in   Mostly Cloudy
11:31 AM 75.2 °F - 68.0 °F 78% 29.96 in 10.0 mi SSE 15.0 mph - 0.07 in   Partly Cloudy
11:53 AM 75.9 °F - 70.0 °F 82% 29.95 in 10.0 mi SSE 15.0 mph 26.5 mph 0.10 in   Partly Cloudy
12:53 PM 79.0 °F - 72.0 °F 79% 29.93 in 10.0 mi South 17.3 mph - N/A   Partly Cloudy
1:12 PM 78.8 °F - 71.6 °F 78% 29.94 in 10.0 mi South 16.1 mph 24.2 mph N/A   Mostly Cloudy
1:53 PM 79.0 °F - 72.0 °F 79% 29.92 in 10.0 mi SSE 10.4 mph 19.6 mph N/A   Overcast
2:07 PM 82.4 °F 88.2 °F 73.4 °F 74% 29.92 in 10.0 mi South 16.1 mph 21.9 mph N/A   Mostly Cloudy
2:28 PM 82.4 °F 87.2 °F 71.6 °F 70% 29.91 in 10.0 mi South 15.0 mph - N/A   Mostly Cloudy
2:53 PM 84.0 °F 89.6 °F 72.0 °F 67% 29.90 in 10.0 mi South 15.0 mph - N/A   Mostly Cloudy
3:01 PM 84.2 °F 89.6 °F 71.6 °F 66% 29.91 in 10.0 mi South 16.1 mph - N/A   Mostly Cloudy
3:53 PM 84.0 °F 89.6 °F 72.0 °F 67% 29.89 in 10.0 mi South 12.7 mph - N/A   Overcast
4:53 PM 84.0 °F 90.2 °F 73.0 °F 69% 29.89 in 10.0 mi South 13.8 mph - N/A   Overcast
5:53 PM 84.0 °F 90.2 °F 73.0 °F 69% 29.87 in 10.0 mi South 12.7 mph 21.9 mph N/A   Scattered Clouds
6:53 PM 82.9 °F 88.8 °F 73.0 °F 72% 29.86 in 10.0 mi South 12.7 mph - N/A   Mostly Cloudy
7:53 PM 81.0 °F 85.8 °F 73.0 °F 77% 29.84 in 10.0 mi South 9.2 mph - N/A   Mostly Cloudy
8:53 PM 80.1 °F 83.8 °F 72.0 °F 76% 29.82 in 10.0 mi SSE 11.5 mph - N/A   Partly Cloudy
9:53 PM 80.1 °F 83.8 °F 72.0 °F 76% 29.89 in 10.0 mi South 11.5 mph - N/A   Overcast
10:53 PM 79.0 °F - 72.0 °F 79% 29.88 in 10.0 mi SSE 12.7 mph - N/A   Scattered Clouds
11:53 PM 79.0 °F - 72.0 °F 79% 29.89 in 10.0 mi South 12.7 mph - N/A   Scattered Clouds